User: anonymous   Login
Location: Unspecified
(0.0000°N, 0.0000°E)
Time: 03:40:18
(UTC+00:00)
Language:

Freja - Orbit

View from above orbital plane
View from above orbital plane
View from above satellite
View from above satellite

Ground track
Ground track

The orbit data is extracted from the following two-line orbital elements,

1 22161U 92064A   18228.92484296 -.00000142  00000-0 -88914-5 0  9992
2 22161  62.9880  51.8361 0784062 355.9112   3.5731 13.30311812253095
Epoch (UTC): 16 August 2018 22:11:46
Eccentricity: 0.0784062
inclination: 62.9880°
perigee height: 555 km
apogee height: 1735 km
right ascension of ascending node: 51.8361°
argument of perigee: 355.9112°
revolutions per day: 13.30311812
mean anomaly at epoch: 3.5731°
orbit number at epoch: 25309

The dashed part of the orbit path shows where the satellite is in the earth's shadow,  

DLR